{"data":{"norad_id":48062,"epoch":"2026-09-19T21:06:46.770336Z","epoch_age_seconds":75586,"freshness":"FRESH","line1":"1 48062U 21025W   26262.87970799  .00000287  00000+0  75150-3 0  9991","line2":"2 48062  87.8925 301.3806 0001613  94.7731 265.3582 13.13469172266039","mean_motion":13.13469172,"eccentricity":0.0001613,"inclination_deg":87.8925,"raan_deg":301.3806,"arg_perigee_deg":94.7731,"mean_anomaly_deg":265.3582,"bstar":0.0007515,"rev_number":26603,"period_min":109.63333062529,"perigee_km":1208.5446596287,"apogee_km":1210.9925179716,"semimajor_km":7587.9055888001,"source":"CELESTRAK","updated_at":"2026-09-20T09:00:44.588172Z"}}